Temperature
14 14 13 14 13 13 12 12 12 12 13 14 14 13 14 15 14 12 12 11 11 10 9 9 8 8 8 8 7 7 6 5 5 5 4 4 4 4 4 3 3 3 3 2
13 13 14 13 13 12 12 12 12 12 12 13 14 14 13 13 12 11 11 10 10 9 8 8 8 8 7 7 6 5 5 4 4 4 4 3 3 3 2 2 2 2 2 1
12 12 13 13 12 12 12 12 12 12 13 13 13 12 12 12 12 11 11 10 9 8 8 7 7 6 6 5 4 4 4 3 3 3 3 2 1 1 1 1 0 0 0 0
10 12 12 13 12 12 12 13 12 12 12 11 11 10 12 12 12 11 10 9 8 7 7 6 6 5 4 3 3 3 3 3 2 2 1 1 0 0 -0 -1 -1 -1 -1 -1
8 10 10 11 12 13 13 12 11 12 11 11 10 10 10 11 11 11 9 8 7 6 5 4 4 4 3 3 3 2 2 2 1 0 -0 -0 -1 -1 -2 -2 -2 -3 -3 -3
8 9 9 12 13 13 13 11 11 11 11 11 10 8 8 9 9 8 7 6 6 5 4 4 3 3 2 2 2 2 1 1 -0 -1 -1 -2 -2 -2 -3 -3 -3 -4 -4 -4
7 8 8 10 11 12 11 10 9 10 10 10 9 8 9 9 8 7 6 6 5 4 4 3 2 2 2 1 1 0 -0 -1 -1 -2 -2 -3 -3 -3 -4 -4 -4 -4 -5 -5
6 7 8 10 11 10 9 9 9 10 10 10 9 9 9 8 8 7 6 5 5 4 3 2 1 1 1 0 -1 -1 -1 -1 -2 -2 -3 -4 -4 -4 -4 -5 -5 -6 -6 -7
7 8 9 10 11 10 10 9 9 9 9 9 8 8 8 7 6 5 5 4 3 3 1 0 0 -0 -0 -1 -1 -2 -2 -2 -2 -3 -4 -4 -5 -5 -5 -6 -7 -7 -8 -8
7 8 9 9 10 9 9 9 9 8 8 8 7 7 7 6 5 4 3 2 1 0 -0 -0 -0 -1 -1 -2 -2 -2 -3 -3 -3 -4 -4 -5 -5 -6 -6 -7 -8 -8 -8 -8
7 7 8 8 8 8 8 8 8 7 7 7 6 6 6 5 4 2 1 0 -1 -1 -1 -1 -1 -1 -2 -2 -3 -3 -3 -3 -4 -4 -5 -6 -6 -6 -7 -8 -8 -8 -8 -8
6 7 7 7 8 8 7 7 7 6 6 5 5 4 4 3 2 1 -0 -1 -1 -1 -1 -1 -1 -2 -2 -3 -3 -4 -4 -4 -5 -5 -6 -7 -7 -7 -7 -8 -9 -9 -9 -8
8 8 8 8 7 7 7 6 6 5 4 4 3 2 1 1 0 -1 -1 -1 -1 -1 -1 -2 -2 -2 -2 -3 -4 -4 -5 -5 -6 -7 -7 -8 -8 -9 -9 -9 -9 -9 -9 -9
8 8 7 7 7 6 5 4 4 3 2 1 0 -0 -0 -1 -1 -1 -1 -1 -1 -1 -1 -2 -3 -3 -3 -4 -4 -5 -6 -6 -7 -8 -8 -8 -9 -9 -10 -10 -10 -10 -10 -10
7 7 7 6 5 5 4 3 1 1 0 -0 -1 -1 -1 -1 -1 -1 -1 -1 -2 -2 -2 -3 -3 -4 -4 -5 -5 -6 -7 -8 -8 -9 -9 -9 -9 -10 -10 -10 -10 -10 -10 -10
6 6 6 5 5 4 4 2 1 0 -0 -0 -1 -1 -1 -1 -1 -1 -2 -2 -3 -3 -3 -4 -4 -5 -5 -6 -6 -7 -8 -8 -9 -9 -10 -10 -10 -10 -10 -10 -10 -10 -10 -10
5 5 5 5 5 4 3 2 1 0 -0 -1 -1 -1 -1 -1 -2 -2 -3 -3 -4 -4 -4 -5 -5 -5 -5 -6 -7 -8 -9 -9 -10 -10 -10 -10 -10 -10 -10 -10 -10 -10 -10 -10
5 6 6 5 4 3 2 1 0 -0 -0 -1 -1 -1 -2 -2 -3 -3 -3 -4 -4 -4 -4 -5 -5 -6 -6 -7 -8 -9 -9 -10 -10 -10 -10 -10 -10 -10 -10 -11 -11 -11 -11 -11
6 5 5 4 3 2 1 1 -0 -0 -1 -1 -1 -2 -2 -3 -3 -4 -4 -4 -4 -5 -5 -6 -6 -6 -7 -8 -9 -10 -10 -10 -11 -11 -11 -10 -10 -11 -11 -11 -11 -11 -11 -11
5 5 4 3 2 1 1 0 -1 -1 -1 -2 -2 -2 -3 -3 -4 -4 -4 -5 -5 -6 -6 -7 -7 -7 -8 -9 -10 -10 -11 -11 -11 -11 -11 -11 -11 -11 -11 -11 -11 -11 -12 -12
4 4 3 3 1 1 -0 -1 -1 -1 -2 -2 -2 -3 -3 -4 -4 -5 -5 -6 -6 -7 -7 -7 -8 -8 -9 -10 -10 -11 -11 -11 -11 -11 -11 -12 -12 -12 -12 -12 -12 -12 -12 -12
4 3 3 2 1 -0 -1 -1 -2 -2 -2 -2 -3 -3 -4 -5 -5 -6 -6 -7 -7 -7 -8 -8 -9 -9 -10 -10 -11 -11 -11 -11 -11 -11 -12 -12 -12 -12 -12 -12 -12 -12 -12 -12
3 2 2 1 -0 -1 -1 -2 -2 -2 -3 -3 -4 -4 -5 -6 -6 -7 -7 -7 -8 -8 -9 -9 -9 -9 -10 -11 -11 -11 -11 -11 -11 -12 -12 -12 -12 -12 -12 -13 -12 -13 -13 -13
2 1 1 -0 -1 -2 -2 -2 -3 -3 -4 -4 -5 -5 -6 -6 -7 -7 -8 -8 -9 -9 -9 -9 -9 -10 -10 -11 -10 -10 -10 -11 -11 -12 -12 -13 -13 -13 -13 -13 -13 -13 -13 -13
1 0 -0 -1 -1 -2 -2 -3 -4 -4 -5 -5 -6 -6 -7 -7 -8 -8 -9 -9 -9 -9 -9 -9 -10 -10 -10 -10 -10 -10 -11 -11 -12 -13 -13 -13 -13 -13 -13 -13 -13 -13 -13 -13
-0 -1 -1 -2 -3 -3 -4 -4 -5 -5 -6 -6 -6 -7 -7 -8 -8 -9 -9 -10 -10 -10 -10 -10 -10 -10 -10 -10 -10 -11 -11 -12 -12 -12 -13 -13 -13 -13 -13 -13 -13 -13 -13 -13
-2 -2 -3 -3 -4 -5 -5 -5 -6 -6 -7 -7 -7 -8 -8 -9 -9 -10 -10 -10 -10 -10 -10 -10 -10 -10 -11 -11 -11 -11 -12 -12 -12 -13 -13 -13 -13 -13 -13 -13 -13 -13 -13 -13
Wind_Speed
3 3 5 5 8 9 8 7 8 7 6 8 7 7 7 8 7 9 9 9 9 8 6 5 5 5 6 6 6 7 7 7 7 8 9 10 11 12 13 13 15 15 16 17
3 3 1 3 7 7 7 5 6 6 9 6 6 4 2 4 9 10 9 9 8 7 6 5 5 4 4 5 5 6 6 7 8 9 10 11 12 12 14 14 15 16 16 17
1 3 4 6 7 8 6 6 7 7 7 4 4 4 2 4 8 9 9 9 7 6 5 4 4 3 3 3 4 5 6 7 9 10 11 12 13 14 14 15 15 16 16 17
3 2 5 6 3 6 6 3 5 5 5 4 2 4 4 1 8 9 9 8 7 5 4 3 2 2 2 4 5 6 6 7 9 10 11 12 12 13 13 13 14 15 16 16
4 3 7 7 3 3 6 3 2 3 3 2 3 3 4 4 3 7 7 7 6 4 3 3 2 2 3 4 6 7 8 8 9 10 11 12 13 13 13 14 14 14 15 16
4 4 6 5 3 3 3 3 3 3 4 2 1 4 4 3 6 8 7 6 5 4 3 3 2 3 5 6 7 8 8 8 9 9 10 12 13 12 12 13 14 15 16 15
4 4 7 7 5 1 3 4 2 4 5 5 2 4 3 7 6 7 7 6 5 4 3 2 3 5 6 6 7 8 8 8 8 9 9 11 9 10 13 14 14 14 15 14
6 5 8 4 3 5 5 3 4 5 4 3 3 4 7 8 9 8 6 5 5 4 2 3 4 5 5 7 7 8 8 9 9 9 10 11 11 11 12 12 13 13 13 14
9 7 3 2 4 5 6 5 3 3 2 4 6 7 7 6 6 5 5 5 4 3 2 3 4 3 5 7 8 8 8 9 10 10 9 9 10 12 11 10 10 12 12 13
4 4 3 4 5 3 5 7 7 5 3 3 5 7 8 6 6 5 5 4 3 1 2 4 4 5 6 8 8 8 9 10 9 9 9 8 8 8 10 10 11 12 12 14
3 3 4 5 5 6 6 4 4 4 4 5 5 5 5 4 4 4 5 3 1 2 4 5 6 7 7 7 8 9 9 9 9 8 9 9 9 9 11 9 12 16 13 13
6 4 4 4 2 3 4 5 7 7 5 1 1 2 3 3 4 5 4 2 2 3 4 5 6 8 8 8 8 8 9 9 8 8 8 9 10 13 18 18 23 24 23 21
5 3 4 1 1 2 1 2 3 3 4 3 1 2 4 4 3 3 1 1 3 5 6 7 7 8 9 8 8 8 10 11 9 8 8 9 10 12 15 17 20 21 23 25
2 3 3 2 2 1 2 3 2 1 0 3 3 3 4 4 3 2 2 4 5 6 7 7 8 10 10 9 8 9 9 12 12 9 9 10 10 11 12 15 16 13 16 23
3 3 2 1 3 2 2 3 4 5 4 4 4 4 4 4 4 4 4 4 6 7 8 8 9 11 10 9 10 10 9 8 8 8 9 9 10 11 12 14 14 14 13 15
4 2 2 3 5 6 5 6 6 6 5 5 5 5 5 4 3 4 5 5 6 8 9 9 10 11 10 10 10 9 8 15 15 10 9 10 10 11 12 13 14 13 13 13
5 5 5 5 5 6 6 7 7 6 6 7 7 6 4 1 3 6 7 7 7 8 9 10 11 11 9 9 10 9 8 11 18 13 9 11 11 11 11 12 13 13 12 16
6 5 5 6 6 6 6 6 6 6 7 7 6 4 3 4 6 7 8 8 8 8 9 10 10 10 9 9 9 8 8 8 9 10 10 11 12 12 11 12 13 14 12 15
6 6 6 6 6 6 5 5 6 6 6 6 5 5 6 6 6 7 7 7 8 10 8 8 16 13 10 11 14 8 8 10 11 11 12 16 15 11 11 12 13 13 13 13
5 5 6 6 6 5 5 6 7 6 6 6 6 6 6 7 6 7 7 7 8 8 9 12 12 9 9 10 16 9 9 10 12 12 12 12 12 12 12 13 13 13 13 13
7 7 8 7 7 7 7 7 8 8 7 7 7 6 6 7 6 6 6 8 8 8 10 16 11 9 9 13 17 9 9 10 11 11 12 12 12 13 13 13 14 15 14 14
6 7 8 7 7 7 7 7 7 7 6 6 5 5 5 7 7 7 7 8 9 15 12 8 8 14 18 20 9 8 9 10 10 10 10 10 11 12 12 12 11 12 12 12
6 7 8 8 9 7 6 6 7 6 6 5 5 5 5 6 5 6 9 6 7 15 13 9 15 23 25 14 8 9 10 11 11 11 10 10 10 11 11 12 11 11 10 11
7 7 7 7 6 6 7 7 6 4 4 3 4 5 5 5 5 5 7 14 18 20 11 16 23 25 23 9 9 10 10 11 10 10 12 11 10 10 11 11 12 11 10 11
7 6 5 5 6 6 6 4 3 2 2 3 5 5 4 4 5 7 8 10 17 18 12 16 22 23 15 10 11 12 10 10 12 12 10 10 11 11 11 11 12 11 10 10
4 4 4 5 4 3 3 3 3 1 1 3 4 4 5 5 7 8 8 10 12 17 13 12 13 16 12 12 12 13 11 12 13 12 11 12 12 12 12 12 12 11 10 9
1 1 2 2 2 3 3 3 2 1 2 3 5 5 5 6 7 8 10 10 10 11 11 12 11 12 12 13 14 13 12 11 11 12 12 11 11 11 11 12 10 9 9 9
Wind_Direction
119 128 149 179 191 188 190 194 204 232 230 242 247 242 241 227 177 148 153 147 134 128 120 104 86 66 50 30 15 8 2 3 357 350 348 346 344 340 338 336 334 330 330 328
53 27 94 245 240 225 222 214 237 273 279 253 249 258 241 169 156 162 159 143 136 131 122 109 97 80 53 23 1 358 359 356 351 352 349 346 341 337 335 334 331 330 328 326
189 332 10 273 241 208 201 195 192 229 254 323 345 29 34 195 174 166 156 147 141 133 129 124 112 87 47 5 357 0 359 355 355 351 345 340 337 335 333 330 327 326 323 323
119 74 242 230 286 198 176 192 220 249 298 330 62 86 13 329 171 161 150 139 134 141 143 131 101 60 29 12 5 359 356 352 350 345 338 333 331 328 325 325 323 320 319 318
126 201 277 305 325 144 150 108 34 90 48 77 122 76 348 350 129 140 134 138 148 155 146 121 78 45 30 12 3 359 351 344 339 335 331 330 327 323 320 321 318 315 316 316
134 181 235 241 245 244 115 111 5 34 21 341 343 330 282 166 112 116 127 141 142 130 114 89 41 34 30 8 357 343 331 323 321 320 321 320 316 313 315 316 313 314 314 313
156 224 265 258 266 76 168 216 357 44 32 18 320 254 179 137 135 144 148 143 132 123 101 59 34 33 15 350 329 313 309 309 311 312 313 311 310 313 313 314 314 313 312 311
160 199 252 281 91 130 163 124 76 55 44 72 143 142 147 161 168 166 154 143 138 123 85 41 28 21 346 317 303 302 304 306 308 308 310 317 312 311 310 312 314 314 314 313
189 203 207 30 116 133 134 139 166 177 199 169 179 194 191 190 179 164 151 140 121 100 43 354 352 347 313 301 304 307 308 307 307 306 301 302 306 310 313 313 314 314 315 316
234 255 160 142 129 140 167 186 203 207 216 223 229 217 197 180 171 156 137 124 108 77 306 308 310 303 292 297 305 308 306 304 303 304 306 304 305 306 309 311 311 312 314 316
249 262 113 152 206 219 222 226 227 232 232 240 245 223 190 173 159 145 135 132 166 261 284 290 294 297 300 302 305 303 300 300 303 304 307 312 310 306 307 299 306 314 315 316
232 219 165 219 250 194 199 222 231 231 235 302 339 216 163 162 152 145 147 168 260 284 288 290 296 298 297 294 293 297 307 310 309 308 308 308 310 311 308 310 313 316 317 317
193 169 181 223 80 114 200 268 297 256 224 192 220 206 166 146 137 137 152 265 281 285 288 294 300 298 296 294 297 298 301 306 306 303 303 306 308 309 311 314 315 317 318 319
175 142 141 169 228 30 50 39 27 7 228 207 198 167 146 144 154 190 242 262 277 291 299 303 300 296 297 299 300 297 296 301 304 299 300 301 302 304 308 312 316 317 318 318
116 125 183 226 138 139 204 229 235 237 231 210 180 168 172 187 215 241 268 297 312 309 302 297 293 295 299 301 300 298 297 294 293 292 295 299 301 304 307 308 310 311 312 316
174 198 235 219 223 233 230 232 240 245 222 200 198 196 197 203 237 293 309 310 299 291 291 291 291 294 299 299 298 298 293 301 311 307 304 303 303 304 306 307 308 307 309 314
185 223 216 229 240 245 237 229 230 229 201 195 197 192 189 230 297 294 287 279 272 274 281 285 289 294 296 292 290 294 293 301 310 310 301 300 301 301 301 303 304 305 306 310
204 205 212 229 245 252 245 221 208 196 187 190 178 175 207 241 257 268 276 286 289 285 283 284 289 300 297 295 295 292 293 297 300 299 299 298 299 300 301 302 302 303 305 310
195 213 233 247 251 242 234 211 193 185 179 172 179 208 232 245 255 268 280 290 294 298 293 292 308 312 301 299 308 295 296 299 300 299 300 302 305 300 299 300 302 305 308 312
214 217 227 239 237 220 213 198 183 185 189 188 201 224 249 263 270 279 285 284 279 276 284 295 299 293 293 295 306 294 292 297 301 302 303 303 302 302 302 303 306 309 311 311
227 220 218 217 219 217 206 192 186 196 201 200 210 231 254 273 283 287 290 294 288 285 294 302 305 299 302 303 306 298 297 300 302 304 305 305 305 305 305 306 307 308 308 309
235 229 227 217 213 216 210 199 197 202 205 214 229 246 266 280 288 288 274 275 285 298 304 290 291 301 309 310 303 301 301 303 305 304 301 301 301 301 300 298 298 300 301 301
253 244 236 224 217 217 213 209 210 208 215 227 243 258 264 270 276 284 291 283 288 298 304 294 302 307 311 312 304 305 305 304 302 300 298 294 292 291 293 294 295 295 295 297
252 249 241 229 208 206 217 219 213 211 217 238 255 266 275 286 285 268 272 297 305 304 301 300 307 309 314 313 303 301 298 297 296 294 295 294 293 294 297 299 299 298 295 294
248 246 232 207 205 215 217 196 182 195 232 274 284 288 284 269 274 287 288 291 299 306 302 304 307 310 311 300 298 297 296 292 293 297 297 300 300 299 297 296 295 294 293 293
240 235 223 212 208 189 163 152 158 176 239 285 292 292 288 281 278 285 290 291 293 302 305 302 301 303 300 297 297 297 296 297 299 298 295 294 293 293 293 293 290 291 291 288
189 163 141 128 120 124 120 120 131 255 288 286 289 289 289 294 296 296 296 298 299 299 298 298 298 297 297 297 298 298 297 295 295 295 294 293 293 292 292 291 292 291 289 286
Height
1463 1463 1466 1468 1471 1473 1476 1477 1482 1477 1476 1470 1468 1467 1465 1464 1464 1467 1470 1470 1470 1471 1471 1472 1472 1471 1470 1469 1467 1464 1460 1457 1452 1448 1444 1440 1436 1431 1426 1421 1416 1410 1404 1398
1466 1466 1467 1469 1469 1471 1472 1472 1474 1474 1471 1463 1463 1462 1462 1462 1463 1465 1467 1468 1469 1470 1470 1470 1469 1469 1468 1466 1463 1460 1457 1453 1449 1445 1441 1436 1432 1427 1423 1418 1413 1407 1401 1395
1473 1471 1467 1471 1465 1467 1467 1467 1468 1471 1467 1462 1461 1461 1462 1462 1463 1464 1465 1466 1468 1468 1469 1469 1469 1467 1465 1462 1459 1456 1453 1449 1445 1441 1437 1433 1429 1424 1419 1414 1409 1403 1398 1391
1476 1473 1478 1465 1459 1459 1462 1463 1464 1464 1464 1462 1462 1462 1462 1462 1463 1463 1464 1465 1467 1468 1469 1468 1466 1464 1461 1459 1456 1453 1450 1446 1441 1437 1432 1429 1425 1420 1416 1410 1405 1399 1393 1387
1481 1479 1474 1465 1458 1457 1460 1464 1464 1463 1462 1462 1462 1462 1462 1462 1462 1462 1463 1465 1466 1467 1467 1465 1463 1460 1458 1455 1453 1449 1446 1442 1438 1433 1428 1424 1420 1416 1411 1406 1400 1394 1388 1382
1481 1480 1479 1464 1456 1455 1457 1465 1465 1463 1463 1463 1462 1466 1464 1462 1461 1461 1463 1464 1465 1465 1464 1462 1459 1456 1454 1452 1449 1445 1442 1438 1434 1430 1425 1421 1417 1412 1407 1401 1395 1389 1382 1376
1479 1481 1473 1460 1455 1455 1466 1466 1464 1462 1462 1462 1462 1463 1461 1460 1460 1460 1462 1462 1462 1461 1460 1458 1455 1453 1450 1448 1445 1441 1438 1434 1430 1426 1422 1417 1412 1408 1402 1396 1389 1383 1376 1370
1479 1481 1475 1456 1454 1459 1462 1462 1461 1461 1462 1461 1461 1460 1459 1458 1458 1458 1459 1459 1458 1457 1455 1453 1451 1449 1447 1444 1441 1437 1433 1429 1425 1422 1417 1412 1407 1402 1397 1390 1383 1376 1370 1364
1464 1463 1457 1454 1455 1457 1458 1460 1460 1460 1460 1460 1459 1458 1457 1456 1456 1456 1456 1456 1455 1453 1452 1450 1449 1447 1444 1440 1437 1433 1429 1424 1420 1416 1412 1407 1402 1396 1390 1385 1379 1372 1367 1361
1456 1454 1454 1454 1455 1457 1458 1458 1457 1457 1458 1458 1457 1456 1455 1454 1453 1453 1453 1452 1451 1450 1449 1448 1446 1444 1440 1436 1432 1428 1424 1420 1415 1411 1406 1402 1397 1392 1386 1380 1375 1369 1364 1358
1454 1453 1453 1456 1455 1456 1455 1455 1455 1455 1455 1455 1454 1453 1452 1451 1451 1450 1450 1449 1448 1448 1447 1445 1442 1439 1436 1433 1428 1424 1419 1415 1410 1406 1401 1396 1391 1387 1381 1376 1373 1367 1361 1354
1452 1449 1451 1453 1452 1452 1453 1453 1453 1452 1452 1451 1450 1449 1449 1448 1448 1447 1446 1446 1445 1444 1442 1440 1437 1434 1431 1428 1423 1418 1413 1409 1405 1401 1396 1391 1385 1379 1374 1371 1366 1361 1356 1351
1446 1447 1448 1449 1449 1450 1450 1450 1449 1448 1448 1447 1446 1446 1445 1445 1444 1444 1444 1443 1442 1440 1437 1435 1431 1429 1426 1422 1418 1413 1409 1405 1400 1395 1391 1386 1380 1374 1366 1360 1357 1353 1349 1344
1444 1445 1446 1447 1447 1447 1446 1445 1444 1443 1442 1442 1442 1441 1441 1441 1442 1442 1441 1439 1437 1435 1433 1430 1427 1424 1421 1416 1412 1408 1404 1400 1395 1390 1385 1380 1375 1369 1363 1356 1349 1344 1341 1338
1443 1444 1445 1445 1444 1443 1441 1440 1439 1438 1437 1437 1437 1437 1438 1438 1438 1438 1436 1435 1433 1431 1429 1426 1422 1419 1415 1410 1406 1402 1398 1393 1388 1383 1379 1374 1369 1364 1359 1353 1347 1341 1335 1330
1441 1441 1441 1440 1440 1438 1436 1435 1434 1434 1434 1434 1434 1434 1434 1435 1434 1434 1433 1431 1429 1426 1424 1420 1416 1412 1408 1404 1400 1395 1391 1387 1383 1378 1373 1368 1364 1359 1354 1349 1343 1337 1332 1326
1438 1438 1437 1437 1435 1434 1432 1431 1431 1430 1430 1431 1431 1432 1432 1432 1431 1431 1429 1427 1424 1421 1418 1415 1410 1406 1402 1398 1394 1389 1384 1380 1376 1372 1367 1363 1358 1354 1349 1344 1339 1333 1328 1323
1435 1435 1434 1433 1431 1430 1429 1428 1428 1428 1428 1428 1429 1429 1429 1428 1427 1426 1424 1422 1418 1415 1413 1408 1404 1399 1396 1392 1388 1383 1378 1373 1369 1365 1361 1357 1352 1348 1343 1339 1333 1328 1322 1317
1431 1430 1429 1428 1427 1426 1425 1425 1424 1424 1425 1425 1425 1425 1425 1424 1423 1421 1418 1415 1411 1407 1404 1401 1397 1393 1389 1385 1381 1376 1371 1367 1363 1359 1355 1350 1346 1342 1337 1332 1327 1322 1317 1312
1428 1427 1425 1424 1422 1422 1421 1421 1420 1421 1421 1422 1422 1422 1421 1420 1418 1415 1411 1408 1406 1402 1397 1393 1389 1385 1381 1377 1373 1368 1365 1361 1356 1352 1348 1344 1340 1335 1331 1326 1322 1317 1312 1307
1425 1423 1421 1420 1419 1418 1417 1417 1417 1417 1417 1418 1418 1417 1416 1414 1412 1409 1405 1401 1399 1396 1391 1387 1382 1377 1373 1369 1366 1362 1358 1353 1349 1345 1341 1337 1333 1329 1324 1320 1316 1311 1307 1302
1421 1420 1418 1416 1415 1414 1413 1413 1413 1413 1413 1413 1412 1411 1409 1407 1405 1402 1400 1397 1393 1389 1384 1379 1374 1371 1367 1363 1359 1355 1350 1346 1342 1337 1333 1329 1325 1321 1317 1313 1309 1305 1301 1297
1416 1415 1413 1411 1410 1409 1409 1408 1408 1408 1408 1407 1407 1406 1404 1401 1399 1396 1393 1390 1387 1382 1377 1372 1368 1364 1360 1356 1351 1347 1342 1338 1334 1330 1326 1322 1318 1314 1310 1306 1302 1298 1295 1291
1410 1408 1406 1405 1403 1403 1403 1403 1403 1402 1401 1401 1401 1400 1398 1395 1393 1391 1387 1383 1380 1375 1370 1365 1361 1357 1353 1348 1343 1339 1335 1330 1326 1322 1318 1314 1311 1307 1303 1300 1296 1292 1289 1286
1403 1402 1400 1398 1397 1397 1398 1397 1397 1396 1396 1396 1396 1395 1393 1390 1387 1384 1380 1376 1372 1368 1363 1358 1354 1349 1345 1340 1336 1331 1327 1323 1319 1315 1312 1307 1303 1299 1296 1292 1289 1286 1283 1280
1396 1395 1394 1393 1393 1393 1393 1392 1392 1392 1392 1391 1390 1389 1387 1384 1381 1377 1373 1369 1365 1361 1356 1351 1346 1341 1337 1332 1328 1323 1319 1315 1311 1307 1303 1299 1295 1292 1288 1285 1282 1280 1277 1274
1390 1390 1389 1389 1389 1389 1388 1388 1389 1389 1388 1386 1384 1383 1380 1377 1374 1370 1366 1362 1358 1353 1348 1344 1339 1334 1329 1324 1319 1315 1310 1306 1302 1298 1294 1291 1287 1284 1281 1278 1275 1273 1271 1268